MDT,Max TemperatureF,Mean TemperatureF,Min TemperatureF,Max Dew PointF,MeanDew PointF,Min DewpointF,Max Humidity, Mean Humidity, Min Humidity, Max Sea Level PressureIn, Mean Sea Level PressureIn, Min Sea Level PressureIn, Max VisibilityMiles, Mean VisibilityMiles, Min VisibilityMiles, Max Wind SpeedMPH, Mean Wind SpeedMPH, Max Gust SpeedMPH,PrecipitationIn, CloudCover, Events, WindDirDegrees
2012-10-1,76,58,39,42,36,32,92,57,21,30.33,30.11,29.76,10,10,10,15,8,23,0.00,0,,181
2012-10-2,75,63,50,37,34,32,50,37,23,29.79,29.74,29.70,10,10,10,28,9,35,0.00,0,,27
2012-10-3,52,43,33,39,36,32,96,73,50,30.49,30.19,29.79,10,8,1,26,14,32,0.28,7,Rain-Snow,344
2012-10-4,43,38,32,36,34,31,92,77,62,30.48,30.43,30.36,10,10,2,13,4,16,0.04,8,Rain-Snow,304
2012-10-5,45,36,27,32,28,22,92,71,49,30.50,30.44,30.36,10,10,10,16,7,21,0.00,5,,31
2012-10-6,48,35,21,30,24,19,100,67,34,30.50,30.39,30.15,10,7,0,14,7,20,0.00,2,Fog,212
2012-10-7,63,47,30,36,32,23,96,63,30,30.14,29.97,29.76,10,10,10,20,11,26,0.00,3,,273
2012-10-8,55,48,41,46,37,28,86,65,43,30.03,29.87,29.76,10,10,7,22,12,28,0.04,7,Rain,305
2012-10-9,48,42,35,35,32,26,92,69,45,30.17,30.11,30.04,10,10,8,22,8,26,0.02,7,Rain,292
2012-10-10,69,51,32,35,33,30,96,61,26,30.12,29.97,29.83,10,10,10,24,11,29,0.00,1,,239
2012-10-11,42,38,34,34,32,29,96,79,62,30.37,30.27,30.14,10,9,2,20,8,23,T,7,Rain,75
2012-10-12,71,52,33,38,34,29,89,58,27,30.10,29.82,29.66,10,10,10,21,8,26,0.00,0,,170
2012-10-13,69,53,37,41,36,33,85,56,27,29.99,29.85,29.71,10,10,10,26,10,31,0.00,2,,279
2012-10-14,72,58,44,40,36,32,76,51,25,30.08,29.98,29.83,10,10,10,24,11,29,0.00,1,,266
2012-10-15,69,58,47,51,41,35,89,60,30,29.81,29.76,29.70,10,10,10,33,9,43,0.03,4,Rain,226
2012-10-16,56,50,43,52,43,28,93,68,42,29.72,29.49,29.34,10,10,6,41,13,59,0.14,4,Rain,219
2012-10-17,52,46,39,38,25,18,82,54,26,29.98,29.80,29.58,10,10,3,48,28,63,0.03,2,Rain,298
2012-10-18,54,42,30,24,20,13,63,41,19,30.18,30.12,30.00,10,10,10,29,16,38,0.00,0,,305
2012-10-19,68,48,28,31,25,20,69,46,22,30.07,29.80,29.60,10,10,10,15,8,20,0.00,0,,172
2012-10-20,68,57,46,45,37,30,93,64,34,29.79,29.59,29.51,10,10,4,25,9,33,0.22,6,Rain,191
2012-10-21,51,46,41,39,34,29,82,62,42,29.99,29.93,29.82,10,10,6,20,6,24,0.08,7,Rain,25
2012-10-22,48,43,37,43,40,35,92,82,71,29.96,29.79,29.61,10,9,2,18,9,26,0.12,7,Rain,110
2012-10-23,45,37,28,43,35,25,92,76,59,30.00,29.78,29.58,10,10,10,23,9,29,0.01,5,Rain,299
2012-10-24,39,32,24,27,24,19,92,73,54,30.27,30.13,29.97,10,10,10,16,9,20,0.00,4,,293
2012-10-25,30,27,24,21,19,15,88,73,58,30.51,30.39,30.21,10,10,10,20,13,25,0.00,7,,317
2012-10-26,37,31,24,23,19,16,88,70,52,30.52,30.40,30.22,10,10,10,14,6,16,0.00,6,,279
2012-10-27,38,31,23,28,23,19,92,76,59,30.24,30.19,30.12,10,9,2,15,9,17,T,7,Snow,42
2012-10-28,49,39,29,33,30,26,92,75,58,30.13,29.98,29.90,10,10,10,13,6,15,T,7,,62
2012-10-29,53,43,32,46,38,30,92,76,59,29.99,29.96,29.92,10,10,10,25,5,33,0.05,4,Rain,124
2012-10-30,64,52,39,45,40,35,100,68,36,30.07,30.00,29.95,10,10,3,12,6,14,0.00,1,,170
2012-10-31,53,44,35,40,37,33,92,78,63,30.11,30.03,29.93,10,10,7,16,9,20,0.00,4,,56